Weather History for Winston-Salem, NC

Change the Weather History Date:

Thursday, July 11, 2013

  Actual Average Record
Temperature  
Mean Temperature 76 °F -  
Max Temperature 82 °F 84 °F 98 °F (1988)
Min Temperature 71 °F 67 °F 58 °F (1972)
Cooling Degree Days 11    
Growing Degree Days 26 (Base 50)    
Moisture  
Dew Point 71 °F    
Average Humidity 86    
Maximum Humidity 94    
Minimum Humidity 69    
Precipitation  
Precipitation 0.22 in - - ()
Sea Level Pressure  
Sea Level Pressure 29.94 in    
Wind  
Wind Speed 3 mph (SW)    
Max Wind Speed 7 mph    
Max Gust Speed -    
Visibility 10 miles    
Events Rain , Thunderstorm    
Averages and records for this station are not official NWS values.
T = Trace of Precipitation, MM = Missing Value Source: NWS Daily Summary

Daily Weather History Graph

Daily Weather History Graph

Search for Another Location

Airport:

Trip Planner

Search our weather history database for the weather conditions in past years. The results will help you decide how hot, cold, wet, or windy it might be!

Date:

Astronomy

Jul. 11, 2013 Rise Set
Actual Time 6:12 AM EDT 8:39 PM EDT
Civil Twilight 5:43 AM EDT 9:09 PM EDT
Nautical Twilight 5:06 AM EDT 9:46 PM EDT
Astronomical Twilight 4:25 AM EDT 10:26 PM EDT
Moon 9:22 AM EDT (7/11) 10:27 PM EDT (7/11)
Length of Visible Light 15h 26m
Length of Day
14h 26m
Waxing Crescent, 10% of the Moon is Illuminated
Jul 11
Waxing Crescent
Jul 15
First Quarter
Jul 22
Full
Jul 29
Last Quarter
Aug 6
New

Hourly Weather History & Observations

Time (EDT) Temp. Heat Index Dew Point Humidity Pressure Visibility Wind Dir Wind Speed Gust Speed Precip Events Conditions
12:54 AM 73.0 °F - 70.0 °F 90% 29.95 in 10.0 mi Calm Calm - N/A   Partly Cloudy
1:54 AM 72.0 °F - 70.0 °F 93% 29.94 in 10.0 mi Calm Calm - N/A   Clear
2:43 AM 73.4 °F - 71.6 °F 94% 29.97 in 10.0 mi SW 4.6 mph - N/A   Mostly Cloudy
2:54 AM 73.0 °F - 71.1 °F 93% 29.93 in 10.0 mi SW 4.6 mph - N/A   Mostly Cloudy
3:24 AM 73.4 °F - 71.6 °F 94% 29.96 in 10.0 mi SSW 3.5 mph - N/A   Overcast
3:54 AM 73.0 °F - 70.0 °F 90% 29.93 in 10.0 mi Variable 3.5 mph - N/A   Mostly Cloudy
4:03 AM 73.4 °F - 69.8 °F 88% 29.97 in 10.0 mi SW 4.6 mph - N/A   Scattered Clouds
4:33 AM 73.4 °F - 69.8 °F 88% 29.98 in 10.0 mi SSW 3.5 mph - N/A   Mostly Cloudy
4:54 AM 72.0 °F - 70.0 °F 93% 29.94 in 10.0 mi SSW 5.8 mph - N/A   Overcast
5:54 AM 72.0 °F - 69.1 °F 91% 29.94 in 10.0 mi Variable 3.5 mph - N/A   Overcast
6:10 AM 71.6 °F - 69.8 °F 94% 29.98 in 10.0 mi Variable 4.6 mph - N/A   Overcast
6:54 AM 72.0 °F - 70.0 °F 93% 29.96 in 10.0 mi SW 3.5 mph - N/A   Overcast
7:43 AM 73.4 °F - 69.8 °F 88% 30.00 in 10.0 mi SSW 4.6 mph - N/A   Overcast
7:51 AM 73.4 °F - 69.8 °F 88% 30.00 in 10.0 mi SW 5.8 mph - N/A   Overcast
7:54 AM 73.0 °F - 70.0 °F 90% 29.97 in 10.0 mi SW 6.9 mph - N/A   Overcast
8:54 AM 73.0 °F - 70.0 °F 90% 29.97 in 10.0 mi WSW 4.6 mph - N/A   Overcast
9:54 AM 73.9 °F - 71.1 °F 91% 29.97 in 10.0 mi West 4.6 mph - N/A   Overcast
10:54 AM 75.0 °F - 71.1 °F 87% 29.97 in 10.0 mi Variable 5.8 mph - 0.00 in   Overcast
11:54 AM 75.9 °F - 71.1 °F 85% 29.98 in 10.0 mi SW 4.6 mph - N/A   Overcast
12:01 PM 77.0 °F - 71.6 °F 83% 30.01 in 10.0 mi WSW 3.5 mph - N/A   Overcast
12:08 PM 77.0 °F - 71.6 °F 83% 30.01 in 10.0 mi Variable 3.5 mph - N/A   Overcast
12:54 PM 79.0 °F - 72.0 °F 79% 29.95 in 10.0 mi Calm Calm - N/A   Overcast
1:54 PM 81.0 °F 84.9 °F 71.1 °F 72% 29.93 in 10.0 mi SSW 4.6 mph - N/A   Overcast
2:08 PM 80.6 °F 84.6 °F 71.6 °F 74% 29.96 in 10.0 mi Calm Calm - N/A   Overcast
2:54 PM 81.0 °F 84.9 °F 71.1 °F 72% 29.91 in 10.0 mi South 4.6 mph - N/A   Mostly Cloudy
3:44 PM 80.6 °F 84.6 °F 71.6 °F 74% 29.93 in 10.0 mi SW 5.8 mph - N/A   Partly Cloudy
3:54 PM 81.0 °F 84.4 °F 70.0 °F 69% 29.90 in 10.0 mi SW 5.8 mph - N/A   Scattered Clouds
4:54 PM 81.0 °F 84.9 °F 71.1 °F 72% 29.89 in 10.0 mi Variable 4.6 mph - N/A   Partly Cloudy
5:24 PM 80.6 °F 84.6 °F 71.6 °F 74% 29.92 in 10.0 mi South 4.6 mph - N/A   Mostly Cloudy
5:54 PM 80.1 °F 84.2 °F 73.0 °F 79% 29.89 in 10.0 mi Variable 3.5 mph - 0.00 in Rain Light Rain
6:26 PM 78.8 °F - 71.6 °F 78% 29.92 in 10.0 mi SSE 5.8 mph - 0.00 in   Mostly Cloudy
6:48 PM 78.8 °F - 71.6 °F 78% 29.92 in 10.0 mi South 5.8 mph - 0.00 in Thunderstorm Scattered Clouds
6:54 PM 78.1 °F - 72.0 °F 81% 29.89 in 10.0 mi SSE 5.8 mph - 0.00 in Thunderstorm Scattered Clouds
7:51 PM 75.2 °F - 69.8 °F 83% 29.93 in 10.0 mi ENE 4.6 mph - N/A Thunderstorm Mostly Cloudy
7:54 PM 75.9 °F - 69.1 °F 79% 29.90 in 10.0 mi NE 4.6 mph - N/A Thunderstorm Mostly Cloudy
8:48 PM 73.4 °F - 69.8 °F 88% 29.93 in 1.8 mi Variable 3.5 mph - 0.14 in Rain , Thunderstorm Heavy Thunderstorms and Rain
8:54 PM 72.0 °F - 70.0 °F 93% 29.91 in 1.5 mi WSW 3.5 mph - 0.17 in Rain , Thunderstorm Heavy Rain
8:59 PM 71.6 °F - 69.8 °F 94% 29.93 in 3.0 mi Calm Calm - 0.01 in Rain , Thunderstorm Thunderstorms and Rain
9:16 PM 73.4 °F - 69.8 °F 88% 29.92 in 10.0 mi Calm Calm - 0.02 in Rain , Thunderstorm Light Thunderstorms and Rain
9:36 PM 71.6 °F - 69.8 °F 94% 29.93 in 10.0 mi Variable 3.5 mph - 0.02 in   Mostly Cloudy
9:54 PM 73.0 °F - 70.0 °F 90% 29.90 in 10.0 mi Calm Calm - 0.02 in Rain Light Rain
10:09 PM 71.6 °F - 69.8 °F 94% 29.93 in 10.0 mi NE 4.6 mph - 0.00 in Rain Light Rain
10:54 PM 72.0 °F - 70.0 °F 93% 29.91 in 10.0 mi Calm Calm - 0.03 in Rain Light Rain
11:10 PM 71.6 °F - 69.8 °F 94% 29.94 in 10.0 mi Calm Calm - 0.00 in   Mostly Cloudy
11:31 PM 71.6 °F - 69.8 °F 94% 29.94 in 10.0 mi West 6.9 mph - 0.00 in   Mostly Cloudy
11:47 PM 71.6 °F - 69.8 °F 94% 29.94 in 10.0 mi WSW 3.5 mph - 0.00 in   Scattered Clouds
11:54 PM 71.1 °F - 69.1 °F 93% 29.91 in 10.0 mi West 3.5 mph - 0.00 in   Mostly Cloudy